ROMMA est une association bénévole à but non lucratif. Votre soutien est indispensable : ADHERER à ROMMA ou FAIRE un DON

Briord - (01, Ain)

Bugey (281 m)   Longitude: 05° 29' 13" E   Latitude: 45° 46' 37" N Station partenaire n°15
 

Détail journalier du     <<     >>

Température Precipitation Humidité Pression Vent Dir Rafale Dir. rafale Ensol.
Heure (°C) (mm) (%) (hPa) (km/h) (km/h) (min)
01:00 0.1093102502SE0
02:00 0.0094102402SE0
03:00 -0.5094102500---0
04:00 -0.8094102500---0
05:00 -1.1094102400---0
06:00 -1.3094102400---0
07:00 -1.8094102400---0
08:00 -1.9094102400---0
09:00 -2.0094102500---0
10:00 0.70.295102600---35
11:00 0.2094102600---35
12:00 2.2094102603SSO25
13:00 2.6094102603OSO45
14:00 4.2091102503ONO45
15:00 5.8086102403ONO60
16:00 7.6079102400---60
17:00 3.2090102400---45
18:00 0.9092102400---0
19:00 0.0093102400---0
20:00 -0.1093102300---0
21:00 -0.7093102300---0
22:00 -1.2093102300---0
23:00 -1.6094102300---0
minuit -1.9093102300---0

Graphique du 15-01-2019

 

Serveur OMMA